Retour au catalogue

DELTA 1 DEB

ActifHEO
NORAD 4841·DEBRIS·🇺🇸 United States

Lancé Jul 4, 1968 depuis Vandenberg Space Force Base

Loading…

Prochains Passages (prochaines 24 heures)

TLE

VieillissantSource: Space-Track

Époque: Aug 31, 2026, 11:34 UTC

1 04841U 68055D   26243.48197500  .00000107  00000-0  20284-3 0  9999
2 04841 120.7191 356.8206 2699373 248.2096 150.3623  9.29294698142432

Suivez DELTA 1 DEB en temps réel avec AllMySat

Download on the App Store